• en Suisse
  • Liste des pays
  • À 7 jours
  • Température de l'eau
  • Carte satellitaire
  • Carte météo
  • Widgets météo
  • user-avatar
    Se connecter

    Météo par heure à Novoe Berezovo

    Ce jour, 25 Septembre, Mardi

    Heure Température Précipitation Vent Pression Humidité
    00:00 +10°C° 0.5 mm 7 m/s 745 mmHg 75%
    01:00 +10°C° 0.4 mm 7 m/s 745 mmHg 78%
    02:00 +10°C° 0.4 mm 7 m/s 744 mmHg 80%
    03:00 +10°C° 0.4 mm 7 m/s 744 mmHg 83%
    04:00 +10°C° 0.3 mm 6 m/s 743 mmHg 84%
    05:00 +10°C° 0.3 mm 6 m/s 743 mmHg 84%
    06:00 +10°C° 0.3 mm 6 m/s 743 mmHg 85%
    07:00 +10°C° 0.3 mm 6 m/s 743 mmHg 85%
    08:00 +9°C° 0.3 mm 5 m/s 743 mmHg 85%
    09:00 +9°C° 0.3 mm 5 m/s 743 mmHg 85%
    10:00 +10°C° 0.1 mm 5 m/s 743 mmHg 80%
    11:00 +10°C° 0.1 mm 5 m/s 743 mmHg 76%
    12:00 +12°C° 0.1 mm 5 m/s 744 mmHg 71%
    13:00 +12°C° 0 mm 5 m/s 744 mmHg 70%
    14:00 +12°C° 0 mm 5 m/s 744 mmHg 68%
    15:00 +12°C° 0 mm 5 m/s 744 mmHg 67%
    16:00 +10°C° 0 mm 5 m/s 745 mmHg 68%
    17:00 +10°C° 0 mm 5 m/s 745 mmHg 70%
    18:00 +9°C° 0 mm 5 m/s 746 mmHg 72%
    19:00 +8°C° 0 mm 5 m/s 746 mmHg 74%
    20:00 +8°C° 0 mm 4 m/s 747 mmHg 76%
    21:00 +7°C° 0 mm 4 m/s 747 mmHg 79%
    22:00 +7°C° 0 mm 5 m/s 748 mmHg 79%
    23:00 +7°C° 0 mm 5 m/s 748 mmHg 79%

    Demain, 26 Septembre, Mercredi

    Heure Température Précipitation Vent Pression Humidité
    00:00 +7°C° 0 mm 5 m/s 749 mmHg 80%
    01:00 +7°C° 0 mm 5 m/s 749 mmHg 79%
    02:00 +7°C° 0 mm 5 m/s 750 mmHg 79%
    03:00 +7°C° 0 mm 5 m/s 750 mmHg 79%
    04:00 +7°C° 0.1 mm 5 m/s 751 mmHg 80%
    05:00 +6°C° 0.1 mm 5 m/s 751 mmHg 80%
    06:00 +6°C° 0.1 mm 5 m/s 752 mmHg 81%
    07:00 +6°C° 0 mm 5 m/s 753 mmHg 80%
    08:00 +6°C° 0 mm 5 m/s 753 mmHg 78%
    09:00 +6°C° 0 mm 5 m/s 754 mmHg 77%
    10:00 +7°C° 0 mm 5 m/s 755 mmHg 75%
    11:00 +7°C° 0 mm 4 m/s 755 mmHg 74%
    12:00 +7°C° 0 mm 4 m/s 756 mmHg 72%
    13:00 +7°C° 0 mm 4 m/s 756 mmHg 70%
    14:00 +7°C° 0 mm 4 m/s 756 mmHg 68%
    15:00 +7°C° 0 mm 4 m/s 757 mmHg 67%
    16:00 +8°C° 0 mm 3 m/s 757 mmHg 66%
    17:00 +8°C° 0 mm 3 m/s 757 mmHg 66%
    18:00 +8°C° 0 mm 3 m/s 757 mmHg 65%
    19:00 +7°C° 0 mm 3 m/s 757 mmHg 66%
    20:00 +7°C° 0 mm 3 m/s 757 mmHg 68%
    21:00 +5°C° 0 mm 3 m/s 757 mmHg 69%
    22:00 +5°C° 0 mm 3 m/s 757 mmHg 70%
    23:00 +4°C° 0 mm 3 m/s 757 mmHg 72%

    Après-demain, 27 Septembre, Jeudi

    Heure Température Précipitation Vent Pression Humidité
    00:00 +4°C° 0 mm 4 m/s 756 mmHg 74%
    01:00 +4°C° 0 mm 4 m/s 756 mmHg 74%
    02:00 +4°C° 0 mm 4 m/s 755 mmHg 73%
    03:00 +3°C° 0 mm 5 m/s 754 mmHg 73%
    04:00 +3°C° 0 mm 5 m/s 754 mmHg 71%
    05:00 +4°C° 0 mm 6 m/s 753 mmHg 69%
    06:00 +4°C° 0 mm 7 m/s 752 mmHg 66%
    07:00 +4°C° 0.3 mm 7 m/s 751 mmHg 67%
    08:00 +5°C° 0.3 mm 8 m/s 751 mmHg 68%
    09:00 +5°C° 0.3 mm 8 m/s 750 mmHg 68%
    10:00 +5°C° 1.2 mm 8 m/s 749 mmHg 73%
    11:00 +5°C° 1.2 mm 9 m/s 749 mmHg 77%
    12:00 +3°C° 1.2 mm 9 m/s 748 mmHg 81%
    13:00 +5°C° 0.6 mm 8 m/s 748 mmHg 83%
    14:00 +5°C° 0.6 mm 8 m/s 747 mmHg 84%
    15:00 +5°C° 0.6 mm 7 m/s 747 mmHg 86%
    16:00 +6°C° 0.5 mm 7 m/s 747 mmHg 87%
    17:00 +6°C° 0.5 mm 7 m/s 747 mmHg 87%
    18:00 +8°C° 0.5 mm 6 m/s 747 mmHg 88%
    19:00 +7°C° 0.4 mm 6 m/s 747 mmHg 87%
    20:00 +7°C° 0.4 mm 5 m/s 748 mmHg 86%
    21:00 +7°C° 0.4 mm 4 m/s 748 mmHg 85%
    22:00 +6°C° 0 mm 4 m/s 748 mmHg 86%
    23:00 +6°C° 0 mm 4 m/s 749 mmHg 87%

    28 Septembre, Vendredi

    Heure Température Précipitation Vent Pression Humidité
    00:00 +5°C° 0 mm 4 m/s 749 mmHg 88%
    01:00 +5°C° 0 mm 4 m/s 749 mmHg 88%
    02:00 +5°C° 0 mm 4 m/s 750 mmHg 89%
    03:00 +4°C° 0 mm 4 m/s 750 mmHg 89%
    04:00 +4°C° 0 mm 4 m/s 750 mmHg 90%
    05:00 +4°C° 0 mm 4 m/s 751 mmHg 90%
    06:00 +4°C° 0 mm 4 m/s 751 mmHg 91%
    07:00 +5°C° 0 mm 4 m/s 751 mmHg 86%
    08:00 +6°C° 0 mm 4 m/s 751 mmHg 81%
    09:00 +7°C° 0 mm 4 m/s 751 mmHg 75%
    10:00 +9°C° 0 mm 5 m/s 751 mmHg 68%
    11:00 +11°C° 0 mm 6 m/s 750 mmHg 60%
    12:00 +12°C° 0 mm 7 m/s 750 mmHg 52%
    13:00 +14°C° 0 mm 7 m/s 749 mmHg 53%
    14:00 +13°C° 0 mm 8 m/s 749 mmHg 53%
    15:00 +15°C° 0 mm 8 m/s 748 mmHg 54%
    16:00 +15°C° 0.1 mm 8 m/s 747 mmHg 61%
    17:00 +13°C° 0.1 mm 8 m/s 747 mmHg 69%
    18:00 +14°C° 0.1 mm 7 m/s 746 mmHg 77%
    19:00 +13°C° 0.2 mm 8 m/s 746 mmHg 78%
    20:00 +13°C° 0.2 mm 8 m/s 746 mmHg 79%
    21:00 +13°C° 0.2 mm 8 m/s 745 mmHg 80%
    22:00 +13°C° 0.4 mm 8 m/s 745 mmHg 82%
    23:00 +13°C° 0.4 mm 8 m/s 745 mmHg 83%

    29 Septembre, Samedi

    Heure Température Précipitation Vent Pression Humidité
    00:00 +14°C° 0.4 mm 7 m/s 745 mmHg 85%
    01:00 +11°C° 0.2 mm 6 m/s 746 mmHg 85%
    02:00 +10°C° 0.2 mm 6 m/s 747 mmHg 85%
    03:00 +9°C° 0.2 mm 5 m/s 748 mmHg 85%
    04:00 +7°C° 0 mm 4 m/s 749 mmHg 87%
    05:00 +7°C° 0 mm 3 m/s 750 mmHg 88%
    06:00 +4°C° 0 mm 3 m/s 751 mmHg 90%
    07:00 +5°C° 0 mm 3 m/s 752 mmHg 84%
    08:00 +5°C° 0 mm 3 m/s 753 mmHg 77%
    09:00 +7°C° 0 mm 3 m/s 753 mmHg 71%
    10:00 +8°C° 0 mm 3 m/s 754 mmHg 63%
    11:00 +8°C° 0 mm 3 m/s 754 mmHg 54%
    12:00 +9°C° 0 mm 2 m/s 755 mmHg 46%
    13:00 +10°C° 0 mm 2 m/s 755 mmHg 44%
    14:00 +10°C° 0 mm 2 m/s 755 mmHg 42%
    15:00 +12°C° 0 mm 2 m/s 755 mmHg 40%
    16:00 +10°C° 0 mm 2 m/s 755 mmHg 44%
    17:00 +9°C° 0 mm 2 m/s 755 mmHg 48%
    18:00 +8°C° 0 mm 2 m/s 756 mmHg 52%
    19:00 +7°C° 0 mm 2 m/s 756 mmHg 54%
    20:00 +7°C° 0 mm 2 m/s 756 mmHg 56%
    21:00 +7°C° 0 mm 2 m/s 757 mmHg 58%
    22:00 +6°C° 0 mm 2 m/s 757 mmHg 60%
    23:00 +5°C° 0 mm 2 m/s 757 mmHg 63%

    30 Septembre, Dimanche

    Heure Température Précipitation Vent Pression Humidité
    00:00 +5°C° 0 mm 2 m/s 758 mmHg 66%
    01:00 +4°C° 0 mm 2 m/s 758 mmHg 69%
    02:00 +4°C° 0 mm 2 m/s 758 mmHg 72%
    03:00 +3°C° 0 mm 2 m/s 759 mmHg 74%
    04:00 +3°C° 0 mm 2 m/s 759 mmHg 75%
    05:00 +2°C° 0 mm 2 m/s 759 mmHg 77%
    06:00 +2°C° 0 mm 2 m/s 760 mmHg 78%
    07:00 +3°C° 0 mm 2 m/s 760 mmHg 70%
    08:00 +5°C° 0 mm 2 m/s 760 mmHg 62%
    09:00 +6°C° 0 mm 2 m/s 761 mmHg 55%
    10:00 +7°C° 0 mm 2 m/s 761 mmHg 50%
    11:00 +8°C° 0 mm 2 m/s 761 mmHg 46%
    12:00 +9°C° 0 mm 2 m/s 761 mmHg 41%
    13:00 +9°C° 0 mm 2 m/s 761 mmHg 40%
    14:00 +10°C° 0 mm 2 m/s 761 mmHg 39%
    15:00 +10°C° 0 mm 2 m/s 761 mmHg 39%
    16:00 +9°C° 0 mm 1 m/s 761 mmHg 43%
    17:00 +8°C° 0 mm 1 m/s 761 mmHg 48%
    18:00 +7°C° 0 mm 1 m/s 761 mmHg 53%
    19:00 +6°C° 0 mm 1 m/s 761 mmHg 55%
    20:00 +5°C° 0 mm 1 m/s 761 mmHg 56%
    21:00 +5°C° 0 mm 1 m/s 762 mmHg 58%
    22:00 +4°C° 0 mm 1 m/s 762 mmHg 60%
    23:00 +4°C° 0 mm 1 m/s 762 mmHg 62%
    Voir plus